Challenge Hesbignon

La Course Aux Châteaux - Verlaine (6.00 km)

samedi 11 mai 2019

Le classement original se trouve sur : http://www.challengehesbignon.be/
CHALLENGE HESBIGNON
LA COURSE AUX CHÂTEAUX - VERLAINE
DISTANCE 6.00 km
samedi 11 mai 2019
 
Place dos Nom Cat. Pl/Cat. temps temps/km Vitesse
1 703 MANETTE OLIVIER H 1 00:21:51 03:39 16.48
2 5111 ROTHELIN JEROME H 2 00:22:26 03:44 16.05
3 711 SULEAU THOMAS H 3 00:22:27 03:45 16.04
4 742 LEROY LOUIS EH 1 00:23:07 03:51 15.57
5 5088 SCHOELS MARC H 4 00:23:20 03:53 15.43
6 5087 VOSS MARTIN EH 2 00:23:52 03:59 15.08
7 720 COX BENOIT H 5 00:24:50 04:08 14.50
8 764 OLIVIER BASTIEN EH 3 00:24:54 04:09 14.46
9 5022 ZIMMER DYLAN H 6 00:25:03 04:11 14.37
10 5067 DILIBERTO MATTEO EH 4 00:25:30 04:15 14.12
11 789 MARTINESSE EMMANUEL H 7 00:26:00 04:20 13.85
12 754 PIRLET TITOUAN CH 1 00:26:09 04:21 13.77
13 724 GRIFNEE JOHAN H 8 00:26:11 04:22 13.75
14 773 BONHOMME LAURENT H 9 00:26:15 04:23 13.71
15 781 DRIESEN JET F 1 00:26:16 04:23 13.71
16 793 DURANT ROMAIN H 10 00:26:29 04:25 13.59
17 809 SCALAIS JULIE CF 1 00:26:34 04:26 13.55
18 5078 DUSPEAUX NOAH EH 5 00:26:39 04:26 13.51
19 759 KEMPINAIRE ARTHUR H 11 00:26:49 04:28 13.42
20 823 FRANKENNE LINDA F 2 00:26:53 04:29 13.39
21 5077 MAURISSEN HERVÉ H 12 00:27:11 04:32 13.24
22 5100 COP THOMAS H 13 00:27:14 04:32 13.22
23 5023 CASTERMANS CHRISTOPHE H 14 00:27:16 04:33 13.20
24 5039 FASTRE ARTHUR H 15 00:27:20 04:33 13.17
25 750 FRISON AARON CH 2 00:27:24 04:34 13.14
26 5041 BOURGUIGNON MICHAEL H 16 00:27:30 04:35 13.09
27 772 FIEVEZ LISIANNE F 3 00:27:34 04:36 13.06
28 5016 NEYTS ROBIN CH 3 00:27:42 04:37 13.00
29 821 VANNESTE LIESBETH F 4 00:27:45 04:38 12.97
30 825 SERVAIS MARTIN EH 6 00:27:48 04:38 12.95
31 5033 BELLEFROID ROMAIN CH 4 00:27:49 04:38 12.94
32 5054 NELIS RAPHAEL H 17 00:27:58 04:40 12.87
33 808 BRICHART LÉA CF 2 00:28:19 04:43 12.71
34 780 DRIESEN LOES F 5 00:28:23 04:44 12.68
35 5002 STREEL NATHAN CH 5 00:28:24 04:44 12.68
36 5042 BRICHART BENOIT H 18 00:28:25 04:44 12.67
37 5110 MALCHAIRE LUCAS EH 7 00:28:26 04:44 12.66
38 5079 GAUSSAIN NATACHA EF 1 00:28:38 04:46 12.57
39 5090 MAES TIJS CH 6 00:28:55 04:49 12.45
40 5068 HOYOUX NICOLAS H 19 00:28:56 04:49 12.44
41 5046 MONJOIE CEDRIC H 20 00:28:59 04:50 12.42
42 5025 JOUANT ALRIC EH 8 00:29:10 04:52 12.34
43 5009 CUPPENS CHRISTIAN H 21 00:29:25 04:54 12.24
44 755 PIRLET ZELIE CF 3 00:29:47 04:58 12.09
45 5005 DANZE CLEMENT CH 7 00:29:56 04:59 12.03
46 747 VANVINCKENROYE BERNARD H 22 00:30:11 05:02 11.93
47 5051 WERY MATHIAS EH 9 00:30:39 05:07 11.75
48 5062 LEMAIRE MYRTILLE CF 4 00:30:41 05:07 11.73
49 5096 LEDUR STÉPHANE H 23 00:30:47 05:08 11.69
50 5049 PEQUET CHRISTOPHE H 24 00:30:57 05:10 11.63
51 743 THISE CYRIL H 25 00:30:57 05:10 11.63
52 5031 COLPIN SACHA CH 8 00:31:02 05:10 11.60
53 5099 MOULIN THOMAS H 26 00:31:03 05:11 11.59
54 5095 MALHERBE GAUDRIC H 27 00:31:07 05:11 11.57
55 5043 DUMONT DE CHASSART GAUTHIER H 28 00:31:18 05:13 11.50
56 5040 FOUARGE BRICE H 29 00:31:29 05:15 11.43
57 5060 BONNEMAYERS CÉDRIC H 30 00:31:37 05:16 11.39
58 5050 PEQUET LOUIS CH 9 00:31:38 05:16 11.38
59 5069 DEJASSE OLIVIER H 31 00:31:46 05:18 11.33
60 5014 GILSOUL ARTHUR CH 10 00:31:56 05:19 11.27
61 5030 DAVID CAMILLE F 6 00:31:59 05:20 11.26
62 760 CUYPERS MATHILDE F 7 00:32:08 05:21 11.20
63 5061 GIELEN PIERRE H 32 00:32:49 05:28 10.97
64 718 TANASE ARIELLE F 8 00:32:51 05:28 10.96
65 5076 WERA CHARLES EH 10 00:32:51 05:28 10.96
66 5075 LARUELLE PAULINE EF 2 00:32:59 05:30 10.91
67 752 DOCQUIER MANON EF 3 00:33:07 05:31 10.87
68 799 ELIARD MARINE EF 4 00:33:08 05:31 10.87
69 5013 GOS THOMAS CH 11 00:33:09 05:32 10.86
70 727 FOUARGE COLINE F 9 00:33:23 05:34 10.78
71 728 ARTUS MARVIN H 33 00:33:23 05:34 10.78
72 5024 SERVATY VALERIE F 10 00:33:24 05:34 10.78
73 5037 LHOEST HERVE EH 11 00:33:31 05:35 10.74
74 5011 DEBAILLY JEROME H 34 00:33:41 05:37 10.69
75 790 VANDEVELDE NENA F 11 00:33:42 05:37 10.68
76 5104 DU FOUR JEZABEL F 12 00:33:45 05:37 10.67
77 5102 DU FOUR JAELLE F 13 00:33:45 05:37 10.67
78 5103 ALFIERI LAURA F 14 00:33:45 05:37 10.67
79 5044 PIRONNET GUILLAUME H 35 00:33:45 05:37 10.67
80 5020 DUBOIS BERNARD H 36 00:33:51 05:39 10.64
81 770 LANGE JEAN-LOU H 37 00:33:52 05:39 10.63
82 5006 DUSSARO MAYA EF 5 00:33:59 05:40 10.59
83 5073 ABRAHAM VINCIANNE F 15 00:34:00 05:40 10.59
84 5035 MASSET FLORIAN EH 12 00:34:02 05:40 10.58
85 725 HEINE VERONIQUE F 16 00:34:05 05:41 10.56
86 5034 MORTEHAN AURELIE F 17 00:34:07 05:41 10.55
87 761 RENARD PATRICK H 38 00:34:17 05:43 10.50
88 5058 MAHIN JULIEN H 39 00:34:41 05:47 10.38
89 5036 LHOEST HENRI H 40 00:35:21 05:54 10.18
90 776 SMETS KRISTEL F 18 00:35:26 05:54 10.16
91 777 GROMMEN JAN H 41 00:35:26 05:54 10.16
92 5072 EVRARD LISA EF 6 00:35:27 05:55 10.16
93 5071 CHASSEUR INES EF 7 00:35:28 05:55 10.15
94 723 KEPPENNE EVELYNE F 19 00:35:32 05:55 10.13
95 5085 CAMBIER MANON CF 5 00:35:42 05:57 10.08
96 5066 POLLARD LUC H 42 00:36:30 06:05 9.86
97 5089 CARLET PAULINE F 20 00:36:42 06:07 9.81
98 786 LEKEUX PAULINE CF 6 00:36:42 06:07 9.81
99 5098 TOSSUT PIERRE H 43 00:36:53 06:09 9.76
100 5018 GUERIN NYATT CH 12 00:36:54 06:09 9.76
101 5001 COUDRON BERNARD H 44 00:36:56 06:09 9.75
102 5093 GAUDE ADELAIDE F 21 00:37:08 06:11 9.69
103 748 DOCQUIER RUDI H 45 00:37:24 06:14 9.63
104 5106 LERUTH ULRICH H 46 00:37:40 06:17 9.56
105 762 MICHOTTE EMILIEN CH 13 00:37:42 06:17 9.55
106 758 DENIS VALERIE F 22 00:37:42 06:17 9.55
107 757 DUCHESNE VALERIE F 23 00:37:45 06:17 9.54
108 5101 MOKEDDEM KADOUR H 47 00:38:07 06:21 9.44
109 5053 VANOVERBEKE DAISY F 24 00:38:14 06:22 9.42
110 5055 LURKIN CATHERINE F 25 00:38:28 06:25 9.36
111 5092 MAES LUKAS H 48 00:38:34 06:26 9.33
112 5091 CEUNEN GOEDELE F 26 00:38:35 06:26 9.33
113 5105 BOCAR ROXANE F 27 00:38:37 06:26 9.32
114 5084 CAMBIER CHLOE CF 7 00:38:37 06:26 9.32
115 5097 POTY GWENDOLINE F 28 00:38:42 06:27 9.30
116 5019 BADA MARIE F 29 00:38:43 06:27 9.30
117 5107 WARNANT JULIE F 30 00:38:51 06:29 9.27
118 745 LEMMENS ISABELLE F 31 00:38:53 06:29 9.26
119 744 LEROY JEAN-FRANCOIS H 49 00:38:54 06:29 9.25
120 5032 LOWIES LAURENCE F 32 00:38:56 06:29 9.25
121 5045 BURTIN BERANGERE F 33 00:38:59 06:30 9.23
122 5021 CRAHAY FRANCE F 34 00:39:17 06:33 9.16
123 5094 EVRARD BARBARA EF 8 00:39:20 06:33 9.15
124 5012 CAPRASSE ISABELLE F 35 00:39:21 06:34 9.15
125 5048 KELLENS THIERRY H 50 00:39:29 06:35 9.12
126 756 PIRLET FRANCOIS H 51 00:39:33 06:35 9.10
127 732 DEWAELHEYNS GREGORY H 52 00:39:34 06:36 9.10
128 796 LIVIS JULIE F 36 00:39:40 06:37 9.08
129 5004 WERA LEON CH 14 00:39:44 06:37 9.06
130 5003 STREEL THIBAULT EH 13 00:39:44 06:37 9.06
131 800 ELIARD FABIEN H 53 00:40:27 06:44 8.90
132 792 RYCKAERT JACQUELINE F 37 00:40:47 06:48 8.83
133 15090 LOSCIUT JOHAN H 54 00:41:00 06:50 8.78
134 5070 DENIS PATRICK H 55 00:41:06 06:51 8.76
135 5007 LARUELLE JEREMY H 56 00:41:07 06:51 8.76
136 722 CATOUL OLIVIER H 57 00:41:08 06:51 8.75
137 5015 NEYTS XAVIER H 58 00:41:22 06:54 8.70
138 811 CHARLIER MARTINE F 38 00:41:59 07:00 8.57
139 5063 PETIT SARAH CF 8 00:42:23 07:04 8.49
140 826 THOMAS MARTINE F 39 00:42:38 07:06 8.44
141 5010 PEETERMANS FANNY F 40 00:42:40 07:07 8.44
142 5074 LAMBERT FLAVIE F 41 00:42:45 07:08 8.42
143 5008 BAUMANS JOHAN H 59 00:42:47 07:08 8.41
144 768 SMOLDERS JULIE F 42 00:42:47 07:08 8.41
145 5065 POLLARD ANNE F 43 00:42:56 07:09 8.39
146 5052 VENDERICK ALINE F 44 00:43:09 07:11 8.34
147 769 LOUWETTE MARIE-CELINE H 60 00:43:10 07:12 8.34
148 814 DE NEUVILLE JÉROME-EMMANUEL H 61 00:43:36 07:16 8.26
149 5038 RATHS VINCENT H 62 00:43:50 07:18 8.21
150 5086 QUOILIN CECILE F 45 00:43:50 07:18 8.21
151 713 LEKEU JOEY H 63 00:44:00 07:20 8.18
152 5080 DUMOULIN HELENE F 46 00:44:20 07:23 8.12
153 5057 GERMEN MARINE F 47 00:44:27 07:24 8.10
154 5064 PETIT ALEXIS CH 15 00:44:55 07:29 8.01
155 5017 GUERIN KAYLA CF 9 00:44:56 07:29 8.01
156 5059 PIRE JENNIFER F 48 00:45:16 07:33 7.95
157 5081 DUMOULIN JUSTINE F 49 00:45:16 07:33 7.95
158 5109 DELPORTE LUDOVIC H 64 00:45:18 07:33 7.95
159 5029 FORTEMPS MIREILLE F 50 00:45:28 07:35 7.92
160 5047 KELLENS LOLA EF 9 00:45:51 07:39 7.85
161 5108 HODY JENNIFER F 51 00:48:07 08:01 7.48
162 5083 GERARD CATHERINE F 52 00:50:19 08:23 7.15
163 5082 DAVID DAVID H 65 00:50:20 08:23 7.15
164 5027 GREATTI ELISE CF 10 00:51:40 08:37 6.97
165 5028 GREATTI MANU H 66 00:51:40 08:37 6.97